Simultaneous Nadir Overpasses (SNOs) Predictions

Prediction of SNOs between GOES-16 and NPP Satellite Orbit:

Table of predicted SNOs for the next 14.0 days since TLE Epoch: 6/2/2017
Index Date Time (GOES-16) GOES-16 Lat,Lon NPP Lat,Lon Distance(km) Time Diff (sec)
1 06/04/2017 19:23:32 0.00, -89.44 -0.10, -89.94 56.24 80
2 06/05/2017 19:07:27 0.00, -89.44 0.92, -85.41 459.91 80
3 06/07/2017 07:29:15 -0.00, -89.45 0.28, -90.67 138.84 80
4 06/08/2017 07:07:50 -0.00, -89.45 -0.75, -86.14 377.33 80
5 06/09/2017 19:29:47 0.00, -89.43 -0.44, -91.44 229.46 80
6 06/10/2017 19:13:42 0.01, -89.43 0.59, -86.91 286.92 80
7 06/12/2017 07:35:29 -0.01, -89.45 0.60, -92.18 311.36 80
8 06/13/2017 07:14:05 -0.01, -89.45 -0.43, -87.65 205.04 80
9 06/14/2017 19:36:01 0.02, -89.43 -0.76, -92.95 401.51 80
10 06/15/2017 19:19:56 0.01, -89.43 0.21, -88.41 115.32 80




NCC Satellite Simultaneous Nadir Overpasses (SNOs) Prediction Service
